Regional Weather Roundup
Issued by NWS

Home | Current Version | Previous Version | Graphics & Text | Print | Product List | Glossary On
Versions: 1 2 3 4 5 6 7 8 9 10 11 12 13 14 15 16 17 18 19 20 21 22 23 24 25 26 27 28 29 30 31 32 33 34 35 36 37 38 39 40 41 42 43 44 45 46 47 48 49 50
746
ASUS45 KTFX 300110
RWRMT
MONTANA REGIONAL WEATHER ROUNDUP
NATIONAL WEATHER SERVICE GREAT FALLS MT
700 PM MDT THU SEP 29 2016

NOTE: "FAIR" INDICATES FEW OR NO CLOUDS BELOW 12000 FEET WITH NO
SIGNIFICANT WEATHER AND/OR OBSTRUCTIONS TO VISIBILITY.

MTZ001>007-043-300200-
WEST OF THE DIVIDE

CITY           SKY/WX    TMP DP  RH WIND       PRES   REMARKS
KALISPELL      PTCLDY    67  49  52 NE3       29.96S
MISSOULA       CLEAR     73  48  41 S5        29.97R
BUTTE          CLOUDY    69  40  34 SW3       30.12R
MULLAN PASS    CLEAR     64  38  38 CALM      30.13S
ANACONDA         N/A     70  39  32 S12G22    30.09R
DEER LODGE       N/A     72  37  28 NE6       30.10R
EUREKA           N/A     66  45  45 CALM      29.97F
HAMILTON         N/A     73  43  33 S23G33    30.01F
LIBBY            N/A     72  48  43 SW3       29.94R
PLAINS           N/A     73  46  38 CALM      29.95S
RONAN            N/A     69  45  42 W2        30.02F
$$

MTZ008-052>055-300200-
SOUTHWEST MONTANA

CITY           SKY/WX    TMP DP  RH WIND       PRES   REMARKS
BOZEMAN        CLOUDY    66  46  48 SE12      30.07F
DILLON         CLOUDY    67  40  37 S21G31    30.12R HAZE
W YELLOWSTONE  CLOUDY    57  41  54 SW7       30.29R
ENNIS          CLEAR     66  43  42 SE15G24   30.18R
THREE FORKS      N/A     72  23  16 E1        30.05S
TWIN BRIDGES     N/A     65  41  41 E7        30.07R
$$

MTZ009-010-012-014-046-048-049-054-300200-
EAST SLOPES AND CENTRAL MONTANA

CITY           SKY/WX    TMP DP  RH WIND       PRES   REMARKS
CUT BANK       PTCLDY    61  48  62 N8        30.07R
GREAT FALLS    CLEAR     66  48  52 NE9       30.01S
MALMSTROM AFB  CLEAR     68  51  56 N9        30.01R
HELENA         PTCLDY    76  41  28 W12G22    30.02R
CHOTEAU          N/A     64  50  59 NW10      30.09R
CONRAD           N/A     62  51  67 NW3       30.08R
$$

MTZ011-013-016-021-045-047-050-051-300200-
NORTH CENTRAL MONTANA

CITY           SKY/WX    TMP DP  RH WIND       PRES   REMARKS
HAVRE          CLEAR     68  55  63 NE6       29.99S
LEWISTOWN      CLOUDY    68  52  56 S5        30.06S
N BAR RANCH    CLOUDY    68  48  49 CALM      30.10S
CHINOOK          N/A     72  57  60 CALM      29.98F
$$

MTZ017>020-022>027-061-062-300200-
NORTHEAST MONTANA

CITY           SKY/WX    TMP DP  RH WIND       PRES   REMARKS
GLASGOW        CLEAR     68  47  46 SE9       30.00S
JORDAN           N/A     69  52  54 E6        30.01F
SIDNEY         CLEAR     69  49  48 E9        30.09S
WOLF POINT     PTCLDY    75  48  38 SE7       30.04S
PLENTYWOOD       N/A     68  48  49 SE10      30.11S
POPLAR           N/A     72  48  43 E9        30.06S
SCOBEY           N/A     69  45  42 E10       30.06F
$$

MTZ028>42-056>058-300200-
SOUTHCENTRAL AND SOUTHEAST MONTANA

CITY           SKY/WX    TMP DP  RH WIND       PRES   REMARKS
BAKER          CLOUDY    67  47  48 SE14      30.11S
BILLINGS       PTCLDY    71  50  47 NE3       30.04F
LIVINGSTON     CLOUDY    69  46  43 N6        30.09S
MILES CITY     PTCLDY    75  50  41 SE8       30.02S
BIG TIMBER     CLEAR     68  45  42 SW5       30.11F
FORSYTH          N/A     75  54  46 CALM      30.00F
LAUREL           N/A     71  49  45 CALM      30.03F
ROUNDUP          N/A     73  44  35 S3        29.96S
$$

REGIONAL REPORTS...DAKOTAS

CITY           SKY/WX    TMP DP  RH WIND       PRES   REMARKS
WILLISTON      CLEAR     66  45  46 E6        30.13S
MINOT          CLEAR     63  47  55 SE14      30.22S
DICKINSON      CLEAR     63  42  46 SE17      30.15S
BEACH            N/A     66  45  45 SE15G21   30.14F
CROSBY           N/A     59  45  58 SE6       30.17S
WATFORD CITY     N/A     63  45  51 SE12      30.15S
BISMARCK       CLEAR     58  45  62 SE12      30.25S
GRAND FORKS    CLEAR     58  46  64 SE8       30.36S
FARGO          CLEAR     58  45  62 E8        30.37S
BUFFALO SD       N/A     70  45  40 E14       30.08S
RAPID CITY     CLEAR     68  45  43 S9        30.17S
$$

REGIONAL REPORTS...WYOMING/IDAHO/WASHINGTON

CITY           SKY/WX    TMP DP  RH WIND       PRES   REMARKS
GILLETTE       CLOUDY    70  47  43 S10       30.15F
SHERIDAN       CLOUDY    63  55  75 W3        30.07S
BUFFALO WY     CLOUDY    69  44  40 S14       30.14F
CODY           LGT RAIN  65  46  50 W23G35    30.17R
YELLOWSTONE LA   N/A     50  42  74 CALM      30.40R
IDAHO FALLS    CLOUDY    67  47  48 SE12      30.18R
SALMON         CLOUDY    72  41  33 SW8       30.09R
BOISE          PTCLDY    86  37  17 S7        29.94F
SPOKANE        MOCLDY    77  43  29 SW9       29.92F
$$

REGIONAL REPORTS...ALBERTA

CITY           SKY/WX    TMP DP  RH WIND       PRES   REMARKS
EDMONTON       CLOUDY    57  37  47 E5        30.12S
CALGARY        MOCLDY    55  43  62 SE10      30.07F
MEDICINE HAT   PTCLDY    63  50  63 N10       30.03R
WATERTON GATE    N/A     55  45  67 N6          N/A
CARDSTON         N/A     59  46  63 N2          N/A
MILK RIVER       N/A     55  46  71 NE8         N/A
$$

REGIONAL REPORTS...SASKATCHEWAN

CITY           SKY/WX    TMP DP  RH WIND       PRES   REMARKS
SWIFT CURRENT  CLEAR     63  52  67 NE12      30.03S
REGINA         PTCLDY    68  45  42 SE21G29   30.08S
SASKATOON      PTCLDY    55  50  82 NE8       30.11S
CYPRESS HILLS    N/A     63  45  51 E3          N/A
VAL MARIE        N/A     63  48  59 SE5         N/A
ROCKGLEN         N/A     66  46  48 SE13        N/A
ASSINIBOIA       N/A     59  41  51 E3          N/A
$$




USA.gov is the U.S. government's official web portal to all federal, state and local government web resources and services.